Total_Precipitation_Accumulation
1.04 1.16 1.23 1.50 1.76 1.93 2.11 2.26 2.36 2.45 2.68 2.85 2.83 2.71 2.54 2.30 2.21 2.19 2.09 1.97 1.88 1.93 1.92 1.77 1.66 1.66 1.58 1.44 1.35 1.27 1.26 1.24 1.21 1.28 1.19 1.06 0.96 0.90 0.82 0.73 0.67 0.64 0.62
0.91 1.03 1.10 1.22 1.44 1.66 1.91 2.16 2.28 2.37 2.38 2.44 2.66 2.81 2.86 2.67 2.38 2.22 2.14 2.04 1.96 1.96 1.94 1.90 1.82 1.74 1.69 1.64 1.59 1.54 1.45 1.41 1.43 1.47 1.51 1.37 1.20 0.97 0.84 0.83 0.78 0.71 0.69
0.78 0.86 0.96 1.15 1.28 1.42 1.67 1.99 2.17 2.31 2.33 2.35 2.61 2.83 2.99 2.83 2.49 2.14 1.97 1.98 2.00 2.01 1.93 1.93 1.97 1.90 1.79 1.68 1.64 1.60 1.57 1.51 1.49 1.51 1.62 1.48 1.22 0.97 0.83 0.76 0.73 0.72 0.71
0.66 0.70 0.82 1.00 1.12 1.28 1.45 1.63 1.85 2.04 2.24 2.33 2.40 2.44 2.55 2.55 2.29 2.16 2.06 2.05 2.05 2.05 2.01 1.97 1.97 1.96 1.89 1.72 1.67 1.61 1.56 1.56 1.53 1.50 1.42 1.32 1.14 1.06 0.95 0.80 0.73 0.73 0.73
0.67 0.67 0.80 0.98 1.03 1.14 1.38 1.51 1.59 1.80 2.04 2.20 2.25 2.38 2.36 2.39 2.44 2.39 2.28 2.17 2.11 2.05 2.00 1.96 1.95 1.87 1.81 1.78 1.80 1.73 1.69 1.62 1.54 1.47 1.42 1.41 1.24 1.08 1.05 0.93 0.78 0.78 0.77
0.74 0.78 0.89 0.98 1.01 1.06 1.24 1.46 1.47 1.56 1.72 1.97 2.19 2.25 2.20 2.24 2.28 2.27 2.19 2.15 2.13 2.09 2.00 1.90 1.86 1.81 1.80 1.80 1.83 1.87 1.81 1.77 1.71 1.59 1.47 1.47 1.45 1.28 1.21 1.14 0.94 0.87 0.81
0.69 0.78 0.87 0.88 0.93 1.02 1.13 1.30 1.39 1.47 1.55 1.72 1.92 2.09 2.18 2.19 2.20 2.21 2.15 2.03 1.93 1.84 1.82 1.84 1.78 1.72 1.67 1.70 1.75 1.83 1.82 1.77 1.74 1.68 1.60 1.53 1.46 1.36 1.34 1.32 1.16 1.04 0.91
0.57 0.61 0.72 0.80 0.89 0.98 1.03 1.08 1.13 1.19 1.27 1.36 1.49 1.67 1.92 2.03 1.95 1.96 1.93 1.88 1.78 1.74 1.73 1.73 1.73 1.73 1.70 1.67 1.71 1.74 1.76 1.74 1.68 1.58 1.53 1.48 1.40 1.39 1.42 1.40 1.42 1.39 1.17
0.58 0.58 0.65 0.69 0.77 0.89 1.00 0.99 0.98 1.02 1.11 1.14 1.22 1.34 1.55 1.71 1.74 1.77 1.71 1.62 1.58 1.61 1.60 1.59 1.60 1.63 1.65 1.64 1.67 1.70 1.68 1.68 1.65 1.59 1.50 1.39 1.27 1.26 1.28 1.31 1.39 1.55 1.49
0.59 0.56 0.60 0.63 0.67 0.76 0.88 0.92 0.93 0.94 1.06 1.10 1.12 1.19 1.29 1.39 1.54 1.62 1.50 1.44 1.43 1.44 1.44 1.43 1.42 1.44 1.47 1.49 1.53 1.55 1.53 1.52 1.50 1.48 1.49 1.43 1.32 1.27 1.28 1.34 1.40 1.49 1.56
0.60 0.61 0.64 0.65 0.68 0.76 0.79 0.81 0.88 0.92 1.02 1.06 1.01 1.01 1.08 1.14 1.22 1.29 1.32 1.26 1.26 1.25 1.25 1.24 1.25 1.24 1.26 1.30 1.35 1.34 1.36 1.42 1.42 1.41 1.43 1.44 1.41 1.39 1.37 1.41 1.47 1.54 1.62
0.55 0.58 0.59 0.61 0.67 0.73 0.73 0.70 0.76 0.83 0.94 0.97 0.91 0.89 0.93 0.99 1.04 1.06 1.12 1.12 1.10 1.10 1.13 1.15 1.14 1.11 1.08 1.12 1.15 1.18 1.19 1.23 1.27 1.32 1.37 1.40 1.41 1.46 1.47 1.50 1.52 1.53 1.53
0.41 0.42 0.45 0.48 0.51 0.54 0.57 0.63 0.65 0.65 0.71 0.74 0.71 0.70 0.71 0.77 0.85 0.88 0.89 0.93 0.97 0.98 1.00 1.03 1.05 1.05 1.03 1.04 1.06 1.05 1.07 1.09 1.12 1.15 1.22 1.24 1.29 1.34 1.38 1.43 1.46 1.44 1.42
0.32 0.35 0.37 0.37 0.41 0.44 0.47 0.53 0.52 0.53 0.60 0.61 0.59 0.60 0.60 0.61 0.66 0.71 0.71 0.72 0.78 0.82 0.85 0.90 0.95 0.95 0.97 1.01 1.04 1.07 1.06 1.04 1.03 1.03 1.09 1.13 1.16 1.20 1.25 1.34 1.37 1.36 1.36
0.27 0.30 0.32 0.34 0.38 0.40 0.43 0.45 0.49 0.55 0.62 0.65 0.64 0.60 0.59 0.58 0.59 0.64 0.65 0.63 0.64 0.64 0.66 0.71 0.79 0.87 0.90 0.93 0.96 0.98 1.02 1.03 1.03 1.04 1.08 1.15 1.28 1.29 1.24 1.21 1.19 1.21 1.28
0.24 0.25 0.27 0.29 0.33 0.39 0.44 0.48 0.54 0.63 0.67 0.71 0.67 0.65 0.60 0.57 0.53 0.53 0.53 0.54 0.55 0.56 0.59 0.63 0.64 0.72 0.81 1.04 1.02 0.92 0.91 0.99 1.04 1.07 1.06 1.09 1.21 1.20 1.18 1.13 1.09 1.12 1.20
0.21 0.22 0.24 0.27 0.30 0.40 0.49 0.56 0.62 0.70 0.72 0.74 0.69 0.64 0.60 0.56 0.52 0.49 0.48 0.51 0.53 0.56 0.60 0.63 0.65 0.69 0.84 1.05 1.04 1.06 0.94 0.95 1.01 1.03 1.02 0.97 0.93 0.97 0.86 0.91 1.00 1.01 1.02
0.17 0.19 0.20 0.22 0.24 0.31 0.42 0.51 0.59 0.72 0.75 0.76 0.76 0.73 0.71 0.71 0.72 0.70 0.71 0.71 0.68 0.70 0.76 0.80 0.82 0.83 0.93 1.03 0.97 0.97 0.88 0.89 0.90 0.87 0.86 0.81 0.76 0.74 0.75 0.77 0.83 0.76 0.71
0.17 0.16 0.17 0.18 0.19 0.22 0.31 0.40 0.53 0.70 0.83 0.91 0.93 0.94 0.97 1.01 1.04 1.04 1.03 1.02 1.02 1.01 0.98 0.94 0.88 0.83 0.83 0.87 0.84 0.81 0.75 0.76 0.74 0.70 0.68 0.68 0.64 0.73 0.82 0.76 0.71 0.65 0.62
0.20 0.19 0.18 0.20 0.22 0.26 0.32 0.46 0.64 0.80 0.92 0.98 1.02 1.07 1.14 1.20 1.17 1.14 1.10 1.02 0.98 0.97 0.96 0.93 0.87 0.78 0.69 0.67 0.64 0.62 0.58 0.57 0.54 0.51 0.51 0.59 0.60 0.71 0.80 0.71 0.69 0.65 0.54
0.28 0.29 0.30 0.33 0.35 0.37 0.45 0.62 0.73 0.85 0.90 0.91 0.93 0.97 0.97 0.99 0.97 0.94 0.89 0.83 0.79 0.74 0.70 0.65 0.61 0.55 0.51 0.51 0.50 0.51 0.48 0.48 0.49 0.48 0.47 0.48 0.60 0.66 0.71 0.72 0.64 0.63 0.64
0.30 0.38 0.44 0.47 0.48 0.51 0.58 0.67 0.69 0.70 0.68 0.67 0.67 0.66 0.61 0.58 0.59 0.61 0.60 0.57 0.57 0.54 0.51 0.46 0.43 0.39 0.38 0.39 0.41 0.48 0.52 0.54 0.51 0.48 0.45 0.48 0.63 0.69 0.69 0.66 0.65 0.72 0.76
0.16 0.20 0.28 0.32 0.33 0.34 0.39 0.43 0.40 0.35 0.32 0.29 0.31 0.32 0.31 0.31 0.32 0.35 0.37 0.38 0.40 0.41 0.41 0.40 0.38 0.36 0.33 0.35 0.41 0.45 0.53 0.60 0.55 0.50 0.54 0.57 0.63 0.66 0.63 0.63 0.67 0.68 0.64
0.11 0.12 0.13 0.14 0.15 0.16 0.18 0.20 0.18 0.15 0.14 0.15 0.16 0.19 0.21 0.24 0.26 0.30 0.32 0.34 0.34 0.35 0.36 0.37 0.37 0.35 0.32 0.32 0.35 0.40 0.48 0.57 0.59 0.58 0.59 0.61 0.61 0.60 0.59 0.59 0.60 0.58 0.57
0.13 0.13 0.13 0.13 0.14 0.13 0.14 0.14 0.15 0.13 0.13 0.14 0.15 0.16 0.19 0.22 0.24 0.26 0.30 0.36 0.36 0.38 0.42 0.42 0.40 0.41 0.39 0.34 0.44 0.52 0.54 0.59 0.64 0.69 0.67 0.62 0.57 0.55 0.54 0.53 0.52 0.54 0.57
0.15 0.15 0.15 0.16 0.18 0.19 0.20 0.20 0.20 0.19 0.18 0.19 0.19 0.21 0.23 0.24 0.24 0.26 0.27 0.31 0.36 0.39 0.42 0.43 0.43 0.39 0.41 0.44 0.50 0.55 0.59 0.65 0.75 0.81 0.71 0.59 0.52 0.50 0.50 0.52 0.53 0.54 0.56